Wind_Speed
11 11 10 10 10 10 9 8 8 7 7 6 5 4 2 2 3 5 6 5 2 1 2 2 1 3 1 1 4 7 8 11 12 10 8 6 5 4 4 4 4 6 7 7 8 7 7 9 9 7 7 7 8 8 7 6 7 7 7 6 7 8 7 7 7 6 6 6 6 6 6 6 6 6 6 7 7 8 8 8 8 8 9 10 10
11 11 11 11 11 11 10 9 9 8 8 7 6 4 3 3 4 6 7 5 3 1 1 1 1 2 1 2 4 7 7 11 12 10 8 6 5 4 4 4 4 5 6 6 8 7 5 8 9 7 6 7 7 8 8 8 8 7 6 6 6 7 7 6 6 6 6 6 6 5 6 6 5 5 6 6 6 7 7 7 7 7 7 9 9
12 11 11 12 12 11 10 10 10 9 9 8 7 6 4 4 4 6 6 6 4 3 2 1 1 3 2 1 3 6 6 11 13 10 8 6 5 4 4 4 4 5 5 5 8 8 5 6 7 6 6 8 8 7 7 7 8 6 5 6 6 5 6 6 6 6 6 5 5 5 5 5 5 5 5 5 6 6 6 6 6 6 6 8 9
12 11 11 12 13 11 11 11 11 11 11 11 10 8 6 5 5 6 7 6 5 5 4 4 4 4 2 1 3 5 7 11 12 11 8 6 5 5 5 5 5 5 5 5 7 8 6 5 5 3 5 8 9 7 7 7 8 8 6 8 8 6 5 5 5 5 5 5 5 5 4 5 5 5 4 5 5 5 6 6 6 6 6 8 8
13 13 13 13 13 11 11 11 11 11 12 12 11 10 8 7 6 7 8 7 6 6 5 6 6 5 3 2 3 5 8 10 11 10 8 6 6 6 5 6 6 5 5 5 6 7 6 6 5 3 4 6 8 8 8 8 7 8 7 8 9 6 5 5 5 4 4 4 4 4 4 4 4 4 4 4 4 5 5 5 5 6 6 7 8
13 13 13 13 12 10 11 11 10 11 11 11 11 11 10 9 8 8 8 7 6 5 5 6 6 4 4 4 5 7 8 10 10 9 7 7 7 7 6 6 6 6 5 5 6 6 6 7 6 4 3 3 5 7 8 9 7 7 8 8 8 7 6 6 5 5 4 3 4 4 4 4 4 4 3 3 4 4 4 4 4 5 5 6 7
12 12 12 12 11 11 11 11 10 9 10 11 11 11 11 10 8 8 8 7 6 5 4 6 7 6 6 6 7 9 9 9 10 10 9 9 8 8 8 7 7 7 6 6 6 7 7 8 7 6 4 3 3 4 6 7 7 8 8 8 7 7 7 7 6 6 5 4 4 4 5 5 4 4 3 3 3 3 4 4 4 4 4 4 5
12 12 12 11 11 12 12 11 10 10 10 11 11 11 11 9 9 10 9 8 8 7 6 8 9 8 7 7 8 10 11 9 7 8 9 10 10 11 10 9 9 8 7 7 8 8 8 9 9 9 8 7 5 4 4 5 6 7 8 8 8 7 7 8 7 7 6 5 6 6 5 6 6 5 4 4 3 3 4 4 4 4 3 3 4
12 13 12 11 12 13 13 12 11 11 11 11 12 12 11 10 10 10 11 11 10 9 9 9 9 9 8 7 6 7 8 7 5 4 3 5 7 10 12 11 11 10 10 9 9 9 8 9 9 10 11 11 10 7 6 7 7 7 7 7 8 8 7 7 8 9 8 7 7 7 7 7 7 7 6 5 4 4 4 4 4 4 3 3 4
11 12 12 12 13 12 12 11 10 10 11 11 13 13 12 11 11 10 11 12 12 10 10 10 8 7 6 6 4 4 3 5 6 4 3 3 2 3 8 10 10 11 11 11 11 11 10 10 10 11 11 12 12 11 9 8 9 8 9 8 8 8 7 7 8 10 11 10 8 8 8 8 8 8 8 6 5 5 4 4 4 3 4 4 4
8 10 10 11 12 11 10 9 8 9 11 11 12 13 13 13 11 10 11 12 11 10 10 10 8 5 4 3 2 4 5 3 4 5 7 7 5 4 5 5 5 6 7 8 11 12 13 12 12 12 12 13 13 13 12 11 10 9 10 10 9 8 9 9 8 8 11 12 9 9 8 7 8 8 9 8 7 6 5 5 5 4 4 4 4
7 8 7 8 9 10 9 8 9 10 11 12 13 13 14 13 11 12 13 13 11 10 9 9 9 7 6 5 5 7 8 5 3 3 4 6 8 9 8 6 4 3 3 3 5 8 11 13 14 13 13 13 14 14 14 13 12 11 11 11 11 10 11 11 10 8 9 12 12 11 11 9 8 7 8 9 8 7 6 6 6 5 4 4 4
6 6 5 5 6 7 8 8 10 11 11 12 12 13 14 12 12 13 14 14 13 11 9 8 8 6 5 4 3 4 5 4 3 3 4 3 5 7 9 11 8 6 5 4 4 4 5 9 12 13 14 14 15 15 16 15 15 14 12 12 12 12 12 12 12 11 9 10 11 13 13 12 10 9 8 9 9 9 8 7 7 6 5 5 5
5 4 3 3 4 4 5 7 8 9 9 9 10 13 14 13 12 14 14 13 13 12 11 8 4 3 3 2 1 1 2 3 3 3 3 4 4 4 5 7 8 7 7 7 7 5 4 6 8 10 13 14 15 16 18 18 18 16 14 13 13 13 14 13 14 14 12 10 9 11 13 12 11 10 9 9 10 9 9 8 7 7 6 6 5
5 5 4 3 3 3 4 4 5 6 7 8 10 12 14 13 13 14 14 13 11 12 12 9 4 3 4 2 1 1 1 2 3 3 3 4 5 5 4 5 5 4 5 6 6 5 5 5 4 5 7 9 12 14 16 18 19 19 18 17 16 15 15 15 15 16 16 14 12 11 12 12 11 10 10 11 12 11 10 9 8 8 7 7 6
4 5 4 4 3 4 5 5 5 5 6 8 11 12 12 12 13 14 14 13 10 9 11 9 6 5 4 2 1 2 1 1 2 2 3 4 4 4 4 3 3 2 2 4 6 7 7 7 7 7 7 8 9 11 12 14 16 17 18 18 18 18 18 17 17 17 17 17 16 14 14 14 12 11 10 12 13 13 12 11 10 9 9 8 7
4 5 5 4 4 5 5 5 5 5 5 6 10 12 10 10 11 10 10 10 9 9 9 7 7 8 4 3 2 1 2 1 1 1 2 3 2 3 3 3 2 1 1 3 5 6 6 8 8 10 10 10 11 12 12 13 13 15 17 18 19 19 19 20 20 20 19 18 19 18 17 16 15 14 12 12 13 13 14 13 12 11 10 10 9
6 6 5 4 5 5 5 5 5 5 5 5 7 8 8 8 8 8 7 6 7 9 9 7 8 8 6 5 4 2 3 2 1 0 1 2 2 1 2 2 2 2 4 5 4 4 5 6 6 7 8 9 11 13 12 11 12 15 18 19 19 20 19 20 21 23 22 20 19 18 17 17 18 18 16 14 14 13 14 14 15 14 13 12 11
6 6 6 5 5 5 4 4 5 5 5 6 6 5 5 5 3 5 7 5 6 9 11 12 10 7 6 7 6 6 6 4 2 1 1 1 1 2 1 2 2 4 6 5 5 5 5 6 6 6 7 9 9 9 8 9 12 14 17 20 19 18 18 17 18 21 23 23 22 20 19 18 19 19 18 18 17 16 15 16 16 16 16 14 14
5 5 5 5 4 3 3 3 5 6 5 7 8 7 5 4 3 4 5 5 6 9 11 14 12 8 7 7 6 5 4 3 2 2 2 1 2 3 4 4 5 7 8 7 7 6 7 7 7 7 7 9 9 8 10 13 14 13 13 16 18 17 16 15 15 16 18 21 23 23 22 21 20 20 19 19 19 18 18 18 19 20 19 17 16
4 5 6 6 4 3 3 3 5 6 7 8 9 9 7 5 3 4 4 5 6 5 6 9 7 6 6 6 5 4 3 3 3 3 3 2 0 2 4 7 8 10 11 9 8 9 8 7 6 6 5 5 6 7 10 11 11 11 12 12 14 15 14 14 15 14 13 15 18 22 24 23 21 21 20 21 20 20 20 20 20 22 22 21 20
5 6 8 8 7 5 4 4 6 7 8 8 9 9 8 7 5 4 4 4 4 3 3 4 3 3 4 5 4 5 4 3 3 3 3 3 2 1 3 5 5 8 12 14 15 16 17 17 16 15 15 12 10 9 9 8 6 10 13 12 12 11 11 13 14 14 14 15 17 16 17 20 22 23 22 20 20 20 21 21 20 20 21 22 22
7 8 10 10 8 7 6 6 7 7 7 8 8 7 7 7 6 6 6 5 6 6 5 5 5 5 5 4 5 6 5 4 5 4 3 3 3 1 2 4 3 5 9 14 16 17 19 20 21 20 19 19 17 15 14 13 11 5 5 8 9 9 9 9 11 13 13 14 15 13 10 11 16 19 20 21 21 21 20 21 20 20 20 21 22
10 10 11 10 8 7 6 7 8 8 8 8 8 7 7 7 7 8 8 8 8 8 8 9 9 9 9 8 8 8 7 7 6 5 5 4 4 3 3 4 2 3 5 8 11 13 15 18 20 20 19 19 19 18 17 17 17 14 9 6 5 6 5 5 7 8 9 10 11 10 9 8 8 10 14 17 20 20 19 20 20 20 20 23 24
12 11 11 9 7 6 7 9 9 9 9 9 8 8 8 8 8 8 8 8 8 8 9 11 10 10 11 9 8 8 7 7 5 5 6 6 7 6 4 3 2 2 5 6 7 9 12 15 18 20 18 18 18 18 19 18 18 17 13 9 6 5 6 6 9 10 10 11 9 8 9 8 7 7 9 10 12 14 15 17 18 16 18 21 24
13 12 11 9 7 7 9 10 10 10 9 9 8 7 7 8 8 8 8 7 6 6 8 9 9 9 8 7 7 7 7 6 4 5 5 5 8 7 4 3 3 4 6 7 7 9 12 12 15 20 19 18 18 17 18 17 16 16 14 12 10 8 7 7 9 10 11 12 10 8 9 8 7 7 8 8 8 9 9 11 13 13 14 17 19
14 13 12 10 9 10 11 11 11 11 10 10 9 8 8 8 8 8 8 6 6 7 7 7 7 7 6 6 6 7 7 6 5 6 6 6 8 8 7 4 3 4 5 7 8 10 15 13 14 19 20 17 18 18 18 16 15 14 13 13 13 12 11 10 10 11 11 11 10 9 9 7 6 6 6 7 8 9 9 11 12 12 13 14 15
15 15 13 12 12 12 11 11 11 10 10 10 10 10 9 9 9 8 8 7 6 7 7 7 7 8 8 7 8 9 9 9 9 9 8 8 8 8 8 7 4 3 4 5 4 6 14 16 14 17 20 18 18 18 17 16 15 14 12 12 12 12 12 10 10 11 11 10 9 9 9 8 7 6 6 7 8 9 11 12 13 14 14 14 14
16 16 15 14 13 13 12 12 11 10 11 11 10 10 9 9 9 9 9 8 7 7 7 7 8 8 9 9 9 11 12 11 11 11 9 9 9 8 9 8 7 4 2 4 3 2 10 15 14 15 18 18 18 19 18 16 15 14 12 11 10 10 10 9 9 9 10 10 9 8 8 9 9 8 7 8 8 9 11 12 13 14 14 14 14
16 17 17 16 15 14 14 13 12 11 11 11 10 10 10 9 9 9 10 9 8 9 8 7 8 8 8 9 9 10 10 10 10 9 8 8 8 8 7 7 8 6 3 2 2 2 6 12 13 14 16 17 18 18 17 16 14 14 13 12 11 10 10 9 9 9 10 10 10 9 9 9 9 9 9 9 9 10 12 13 14 14 14 14 14
17 17 17 17 16 16 15 13 12 11 11 10 9 8 9 10 10 10 10 9 9 9 8 6 7 7 8 9 8 8 7 7 7 6 6 7 6 6 6 5 7 7 5 3 1 3 7 10 11 12 14 16 16 16 16 14 13 13 13 13 13 11 10 11 11 10 10 10 10 10 11 10 10 10 10 10 10 10 11 13 14 14 14 13 13
18 18 17 16 17 18 18 16 14 13 12 11 9 8 9 9 8 9 9 8 8 8 8 6 6 5 6 7 7 7 6 4 4 4 5 6 6 7 6 5 6 7 7 5 2 3 6 8 10 12 14 15 15 16 16 14 13 13 13 13 13 12 11 12 12 12 12 12 12 12 12 11 11 11 11 11 11 11 11 11 13 13 13 13 14
20 19 19 18 17 17 19 18 17 16 15 13 12 11 10 9 8 7 7 7 6 6 6 6 6 5 5 5 5 5 5 4 3 2 2 4 5 6 6 5 6 8 8 8 5 3 5 8 11 13 14 16 16 17 17 17 16 14 13 13 13 13 13 13 13 13 13 13 12 12 12 12 12 12 12 12 12 12 12 11 11 12 12 12 14
21 21 20 20 18 18 19 20 19 18 16 15 14 13 12 11 9 9 8 8 7 7 6 5 5 6 5 4 2 2 2 2 3 2 1 2 3 3 5 5 6 8 9 10 9 6 6 9 12 14 16 17 18 18 19 19 19 17 16 15 15 15 15 14 14 15 14 13 13 13 13 13 12 12 12 12 12 12 12 12 11 11 11 11 12
23 22 21 21 19 18 19 19 20 19 17 16 15 14 13 12 12 11 10 10 9 8 8 7 6 6 6 4 3 2 2 1 1 2 1 1 2 2 4 4 6 7 9 11 12 9 9 11 12 14 17 17 17 19 20 20 19 18 18 17 16 16 16 16 16 16 16 16 15 15 15 15 14 13 13 12 12 12 12 12 12 12 11 11 11
25 24 23 22 21 20 20 19 20 20 19 18 17 15 14 13 12 12 12 11 11 10 9 9 8 7 7 6 5 4 3 3 3 2 2 1 1 1 2 3 4 6 8 10 11 11 11 12 12 13 15 16 17 19 21 21 20 19 19 18 18 18 17 18 18 18 18 18 18 18 17 18 18 17 16 15 14 14 14 13 13 13 13 12 12
26 24 21 19 18 19 20 20 20 19 19 19 17 16 15 14 13 12 12 12 11 11 11 10 10 9 9 8 7 7 6 6 5 4 4 3 3 2 1 2 3 4 6 9 11 11 11 12 12 12 15 17 17 19 21 23 23 22 21 21 20 21 22 21 20 21 21 20 19 18 18 18 19 19 19 19 18 17 16 16 15 14 14 13 13
28 26 24 20 18 18 20 21 22 20 18 18 17 15 14 14 14 13 13 13 13 13 12 12 12 12 12 11 10 10 10 9 8 7 6 6 5 4 3 3 3 4 6 8 9 10 9 10 10 12 15 17 19 21 22 24 23 22 25 26 25 25 27 27 26 26 24 22 21 20 21 21 21 21 21 21 20 20 19 18 18 17 17 16 15
23 24 26 24 22 22 22 23 24 24 21 19 17 16 15 15 16 15 15 15 16 16 15 14 14 14 13 13 13 13 13 12 11 10 9 8 7 6 5 5 5 6 7 8 9 9 8 8 9 12 14 16 19 21 22 24 22 22 26 29 30 31 31 31 32 30 25 23 24 24 24 25 25 24 24 22 21 21 21 20 19 19 19 18 17
22 23 26 27 27 28 26 24 24 27 25 21 19 18 17 17 18 18 17 17 18 18 18 17 17 17 16 16 16 16 16 15 13 12 10 9 8 7 7 7 8 8 9 9 9 8 7 8 9 11 14 16 18 20 22 24 23 22 23 24 26 30 31 32 31 29 26 26 28 29 30 30 30 29 27 25 23 22 22 21 20 20 19 18 18
27 27 30 30 30 29 26 24 24 27 27 24 21 20 20 21 21 21 21 21 21 21 20 20 20 19 19 19 19 19 18 16 15 13 11 10 9 8 8 8 8 8 9 10 9 8 7 8 10 12 14 17 18 20 22 22 20 21 22 22 23 25 29 31 29 22 22 27 32 34 35 34 34 34 31 29 27 26 24 23 22 19 17 17 17
30 30 30 30 29 27 24 24 24 25 26 25 21 20 20 20 20 20 21 22 22 22 22 23 23 23 22 22 22 21 19 18 17 15 13 11 10 9 8 8 8 8 9 8 8 7 7 8 9 11 13 15 17 18 19 18 18 20 22 22 24 25 26 28 26 21 20 25 32 37 38 36 34 34 33 31 30 29 27 26 23 19 16 16 16
29 26 24 25 25 23 20 19 20 22 25 24 20 17 16 16 16 17 18 19 20 20 22 23 25 26 25 24 24 22 21 19 17 15 13 11 10 8 7 7 8 8 8 8 7 7 7 8 9 10 11 13 15 15 15 17 19 20 21 21 22 24 23 21 20 22 25 28 31 35 38 35 31 31 32 30 28 29 28 26 23 19 16 16 17
25 23 23 24 23 20 19 19 19 20 19 16 13 11 11 10 12 13 15 17 18 19 20 21 23 25 26 25 24 23 21 20 17 15 12 10 8 8 7 7 7 7 7 7 6 7 8 8 9 10 10 11 12 12 13 15 18 20 21 21 21 22 21 19 19 23 29 31 31 33 35 31 26 27 29 28 28 28 26 22 20 18 16 16 17
21 22 24 23 20 18 18 19 17 13 9 7 6 6 7 8 9 10 12 14 15 17 18 19 20 22 23 23 23 22 20 18 15 12 10 9 8 7 7 6 6 6 7 7 7 8 8 9 10 11 10 10 10 11 12 13 16 19 21 23 23 23 23 23 23 28 31 30 27 28 31 29 25 23 26 28 27 25 20 17 17 16 15 17 18
15 16 17 16 14 14 14 14 12 9 6 5 4 5 6 7 7 9 10 11 12 14 15 17 18 19 20 20 19 20 19 16 13 11 9 8 7 7 7 7 7 7 8 8 8 9 9 9 10 10 10 10 11 12 13 14 16 19 21 23 24 24 25 26 26 29 30 24 20 19 24 27 26 23 24 26 24 19 15 14 15 15 15 17 18
10 9 9 9 9 9 9 10 9 8 6 4 5 5 5 5 5 7 9 9 10 11 13 14 14 15 15 15 15 17 16 14 12 10 8 8 8 8 8 8 8 9 9 8 7 7 7 8 9 9 10 12 13 15 16 18 18 19 19 20 21 22 24 24 25 26 24 20 17 15 19 24 26 24 23 22 20 17 16 15 15 15 14 15 17
6 5 4 4 4 4 6 8 8 8 7 6 6 6 6 5 5 5 6 7 7 7 7 7 7 8 8 10 13 14 13 12 10 9 9 9 9 9 9 8 8 7 6 5 5 6 7 9 10 11 13 14 16 16 17 17 17 16 16 17 17 19 19 20 21 21 19 19 19 16 19 21 22 22 23 22 20 19 18 16 14 13 14 14 15
3 2 2 2 1 2 4 5 6 7 8 7 7 7 6 6 6 5 3 3 3 3 3 3 5 7 8 10 11 11 10 9 9 9 9 9 9 8 8 7 6 5 4 5 6 8 9 11 11 13 14 14 15 15 14 14 14 14 15 17 17 18 18 16 15 16 20 21 18 13 15 18 19 22 24 22 20 19 18 15 12 11 13 15 16
1 0 1 1 2 3 4 5 6 7 8 8 7 7 6 5 5 4 1 2 4 6 7 8 9 9 9 8 8 8 8 8 7 7 7 6 6 6 6 6 6 6 6 7 9 10 11 12 12 12 13 13 14 15 14 14 13 12 14 17 18 19 19 17 15 18 21 17 11 11 14 18 20 21 21 21 20 18 15 11 9 11 15 17 19
1 1 2 2 3 4 5 6 7 8 8 9 8 6 5 4 4 2 2 4 7 9 9 9 9 8 7 7 6 6 6 5 4 4 4 4 4 4 4 5 6 7 8 9 11 12 13 13 13 13 14 14 14 14 14 14 14 12 14 17 18 20 21 21 19 18 14 8 10 16 19 20 19 18 18 17 15 13 11 9 11 15 17 17 19
Wind_Direction
224 231 239 241 238 239 240 239 238 240 246 245 231 224 219 193 183 180 175 184 197 65 31 41 141 197 173 25 201 190 180 182 186 185 179 173 164 167 186 198 190 184 197 195 189 203 196 185 192 200 201 195 185 184 186 185 187 178 165 157 148 143 140 138 137 131 125 117 110 106 103 106 108 109 108 112 115 113 109 101 99 98 100 103 101
232 238 245 248 244 245 250 252 251 252 255 251 239 232 221 201 183 174 174 185 190 152 69 54 75 214 318 11 192 189 188 187 189 191 184 176 169 171 188 201 200 199 212 198 186 205 211 188 193 205 205 201 197 196 198 194 192 190 190 190 173 158 150 147 149 146 141 133 125 120 114 113 113 116 116 117 120 121 117 111 110 108 108 112 109
235 238 245 245 243 247 254 259 260 260 262 259 250 244 231 215 197 185 187 195 202 211 232 228 262 247 273 357 182 191 202 193 192 196 189 182 175 177 191 203 217 215 215 199 188 202 211 190 195 207 204 200 202 211 215 205 200 204 213 218 206 184 170 161 159 158 156 150 141 135 127 124 122 122 121 120 123 124 124 124 123 117 114 116 114
234 238 243 240 238 245 254 258 261 263 264 262 256 252 245 228 213 208 208 213 226 233 230 230 242 249 246 222 174 178 192 193 195 199 195 196 191 189 197 200 216 223 218 202 191 203 205 194 205 209 199 202 205 211 215 211 212 213 219 232 230 214 197 185 178 171 166 163 157 150 141 137 132 129 127 124 124 126 127 125 124 120 117 119 117
237 238 238 235 234 241 252 255 258 261 260 255 251 250 249 240 234 230 221 225 240 240 238 235 236 241 212 178 157 162 186 193 197 202 200 206 207 207 208 206 214 225 229 216 199 207 206 204 217 210 190 202 207 207 208 213 220 217 215 233 241 234 221 211 202 193 183 180 176 167 160 155 148 140 132 131 131 132 133 129 128 123 124 128 123
239 235 233 231 233 236 243 247 252 257 252 245 242 240 242 244 247 238 223 227 242 244 243 229 217 206 168 148 132 137 173 193 199 208 213 219 220 219 218 217 220 228 235 232 220 217 214 219 229 225 207 199 202 203 207 211 218 219 214 225 248 252 238 226 219 211 208 208 202 188 179 172 164 157 148 146 145 140 140 139 137 131 129 134 131
234 229 228 228 234 236 234 236 243 247 240 237 236 234 236 239 242 234 221 215 219 217 211 201 189 175 155 143 134 131 148 174 192 206 214 221 225 226 226 226 229 235 242 242 238 233 227 229 237 242 245 240 213 202 204 209 210 217 214 211 235 255 243 232 232 227 225 228 234 222 197 187 186 185 175 164 160 156 154 151 151 148 142 140 141
233 231 230 231 234 236 233 231 237 241 236 235 235 235 236 235 231 227 217 206 202 192 180 183 179 172 162 146 134 129 129 134 159 193 208 216 223 228 228 231 236 240 245 246 246 246 241 238 242 248 253 260 259 237 220 223 219 220 221 213 223 243 239 229 231 239 244 242 244 242 224 210 204 199 195 186 180 182 176 163 157 162 165 160 156
232 234 232 232 233 236 235 230 233 242 243 243 243 239 236 233 227 222 218 208 199 190 178 175 173 173 181 176 157 140 131 132 146 157 185 209 218 230 232 233 239 243 250 254 254 254 253 250 248 249 252 257 263 257 241 241 239 233 232 227 229 240 242 230 226 232 243 252 248 244 248 243 228 211 204 204 200 198 195 183 172 170 177 181 177
228 230 231 232 233 235 237 230 228 241 248 253 253 245 235 232 229 220 213 208 202 194 185 177 166 165 187 208 221 207 192 221 228 216 207 197 171 238 242 240 240 241 248 255 258 258 258 258 256 253 252 254 259 259 251 245 242 239 239 241 239 238 241 240 233 226 229 243 253 247 252 255 246 231 216 214 213 210 207 200 191 183 184 189 190
222 225 228 230 229 227 230 232 233 242 247 247 248 244 233 229 228 214 198 197 197 191 186 182 170 156 160 165 131 115 122 181 237 233 221 215 213 228 237 235 233 234 242 250 254 255 253 254 257 258 258 256 257 257 254 250 247 243 241 246 246 235 235 243 249 238 221 225 240 248 252 252 251 246 232 226 221 217 217 211 207 203 201 201 199
201 210 220 221 221 221 222 225 234 240 238 232 232 236 232 222 216 206 190 181 179 180 181 180 171 151 136 130 117 107 104 114 136 168 196 210 221 228 231 231 228 224 236 252 254 252 249 248 249 254 261 263 263 262 259 256 254 251 244 245 249 239 232 235 245 252 231 217 222 238 250 250 251 253 242 235 228 222 221 219 217 215 215 216 212
175 190 201 203 212 216 215 219 228 232 231 229 226 226 226 219 203 190 183 174 165 168 175 170 163 145 131 132 134 123 112 117 128 138 157 175 201 221 229 232 232 230 239 260 268 259 250 252 251 251 257 263 266 266 264 262 260 260 255 251 253 248 240 234 235 244 243 223 214 225 240 248 250 249 243 239 233 228 227 228 226 224 226 225 226
147 159 165 173 197 206 209 218 226 229 230 230 230 225 219 214 199 179 173 173 166 169 176 171 162 135 126 109 78 105 120 112 103 105 130 157 166 167 189 208 216 221 230 241 251 253 247 255 260 257 259 265 270 270 268 267 264 264 265 262 260 256 250 247 241 241 247 243 227 224 234 245 250 247 240 235 234 234 235 240 239 235 235 230 232
141 137 128 129 162 178 176 190 212 225 224 217 222 223 209 198 194 182 170 164 158 167 180 184 192 152 117 71 36 42 27 53 73 84 97 134 163 159 148 160 175 193 208 219 231 239 240 238 244 263 264 262 269 273 272 272 270 268 269 269 268 265 259 255 250 246 250 252 250 242 240 246 250 248 241 232 233 236 240 246 247 244 241 237 238
164 147 129 118 146 165 163 166 181 197 205 209 213 218 210 196 193 190 181 175 166 169 181 187 195 178 126 87 76 81 63 348 27 82 94 109 147 170 166 167 173 178 217 249 253 249 256 262 264 268 266 261 264 272 277 278 277 272 270 270 270 270 266 261 254 249 250 250 251 250 248 250 252 250 243 235 234 237 240 245 247 247 245 243 242
186 164 142 122 139 153 157 160 163 167 176 196 210 218 220 209 203 196 188 195 197 189 186 185 191 196 176 134 105 78 201 250 11 83 107 111 132 170 177 184 191 183 333 316 294 274 282 293 288 275 271 279 279 274 277 281 280 274 270 269 269 269 268 265 259 252 250 249 249 248 245 247 251 250 245 239 237 239 242 245 247 245 244 246 245
182 172 163 140 137 146 148 151 145 137 138 154 186 207 210 207 213 208 196 204 212 203 194 192 199 200 181 149 139 148 171 165 132 72 33 97 119 156 193 214 217 290 324 330 328 320 321 322 318 302 293 300 292 277 277 286 285 279 275 273 273 273 273 271 264 256 252 251 250 249 244 243 248 251 250 246 242 241 243 246 248 247 244 244 242
164 170 176 155 135 133 135 149 147 127 112 115 129 149 172 189 206 209 214 219 223 220 202 194 203 193 157 141 133 127 129 129 136 121 53 57 49 66 59 331 320 333 338 345 346 332 326 324 322 321 320 325 315 293 300 319 313 299 286 278 278 278 278 278 269 259 255 254 253 253 250 247 246 247 250 252 250 247 248 249 250 250 247 245 245
147 162 178 171 154 126 104 126 155 140 118 114 117 118 133 155 160 182 212 210 212 227 206 191 197 190 162 147 133 125 111 103 134 136 128 133 352 30 46 39 39 32 21 13 2 342 329 327 322 318 315 317 313 297 306 320 320 317 305 288 287 289 288 288 283 271 265 261 258 255 253 251 248 247 248 250 252 251 252 253 253 254 251 246 245
138 149 166 172 171 149 106 110 140 139 129 122 116 112 111 114 138 168 182 181 191 219 205 191 198 196 181 166 143 122 90 96 131 125 105 104 339 343 26 45 55 49 43 39 35 34 27 22 19 12 2 343 330 315 313 316 303 299 307 304 299 297 293 290 284 278 280 280 274 263 257 254 252 253 251 249 253 252 252 256 256 256 255 250 247
146 150 157 155 148 142 131 124 126 127 129 125 119 114 107 103 111 137 153 156 155 151 162 174 180 178 186 187 161 132 109 109 135 131 105 96 107 111 33 46 46 42 56 65 64 65 64 62 61 58 56 55 51 39 20 9 326 279 287 305 314 311 305 298 284 276 281 293 301 292 272 262 256 253 250 251 257 253 252 260 260 256 255 253 253
153 153 152 149 142 138 137 138 134 130 130 131 133 130 120 118 122 124 124 117 112 119 124 127 129 120 120 146 150 140 130 120 120 122 115 101 102 105 43 54 57 42 68 78 69 66 66 60 56 55 55 56 57 56 47 37 31 8 301 311 324 328 323 314 304 296 293 305 322 326 307 282 268 260 254 254 258 255 254 263 267 263 260 257 256
160 158 155 153 152 149 152 154 149 144 141 141 142 143 141 140 137 128 120 111 104 105 107 111 121 118 111 116 124 124 117 110 107 95 88 87 93 94 44 38 49 31 63 82 69 59 56 50 45 45 48 50 52 53 51 46 43 44 46 36 11 357 349 337 341 343 334 340 352 347 336 333 319 293 271 264 266 265 263 266 269 268 266 262 256
168 167 162 160 162 159 157 158 157 154 152 151 149 147 149 149 145 138 127 119 112 107 108 110 114 114 112 113 114 112 103 99 97 89 88 83 80 83 58 43 49 13 31 54 66 60 48 41 37 37 44 46 46 47 46 46 47 44 43 43 31 20 26 26 26 30 19 8 6 349 337 339 334 313 288 278 280 278 272 272 276 275 273 269 262
176 175 171 167 168 156 145 147 149 148 146 148 152 154 158 158 156 152 143 137 134 129 122 117 114 110 111 110 104 97 89 82 76 78 83 77 74 70 59 60 49 31 39 47 60 55 38 36 34 31 38 42 39 38 36 37 41 41 40 38 27 10 8 10 12 21 27 22 13 355 340 331 319 305 290 287 290 292 286 282 287 290 286 281 274
181 181 178 176 170 153 144 142 138 136 134 133 136 138 144 150 153 154 149 147 148 141 131 123 117 107 102 99 94 87 76 71 69 69 70 68 68 62 54 65 43 18 30 43 56 46 30 31 32 25 28 32 30 29 28 27 30 30 32 36 35 27 17 9 1 0 6 9 6 358 349 340 330 315 301 297 295 296 296 291 292 293 291 289 284
185 185 185 184 176 160 151 146 139 135 131 130 132 133 135 137 139 141 137 138 145 142 135 127 116 103 90 84 88 85 77 77 79 77 76 69 64 56 50 65 76 30 7 15 30 39 26 25 25 20 19 20 20 20 18 19 23 23 24 26 29 33 31 25 19 14 7 356 347 343 340 339 338 330 316 306 298 296 293 290 289 288 288 289 288
191 188 187 186 181 171 164 156 149 143 137 135 136 141 144 141 138 137 133 135 141 139 138 136 126 111 93 85 88 87 83 83 82 80 79 70 61 56 47 54 67 78 80 14 338 350 23 21 18 12 11 12 10 10 11 14 18 19 22 25 24 25 26 26 26 25 21 13 3 351 341 335 335 332 325 313 304 301 297 294 290 286 285 284 284
197 193 190 190 188 181 176 171 164 158 150 145 143 147 152 148 142 139 134 136 139 137 138 139 134 124 104 94 93 92 90 89 85 79 73 63 55 54 49 45 48 60 99 69 350 338 12 16 19 13 7 9 6 3 7 13 16 18 20 25 29 28 28 28 26 23 22 20 17 9 358 348 342 338 336 329 318 308 301 298 295 288 284 282 280
203 198 196 195 193 189 187 183 176 171 167 161 155 157 163 159 152 147 143 140 140 137 136 138 135 129 115 104 97 96 97 95 91 78 62 57 50 48 49 41 39 42 58 83 64 351 0 11 19 13 7 8 2 359 5 10 13 16 17 20 24 27 31 32 28 25 22 18 14 10 6 3 358 352 348 343 334 323 310 303 300 294 287 282 281
209 204 203 202 198 195 194 192 186 180 178 176 174 172 173 172 165 159 153 149 149 145 141 144 147 143 130 115 102 96 96 98 97 83 64 61 56 55 57 50 48 44 42 60 71 349 4 11 10 7 5 4 0 358 2 4 6 8 9 10 11 14 20 25 24 22 21 18 13 9 6 4 2 358 358 356 352 344 332 318 311 305 297 287 282
215 210 209 208 206 202 199 198 195 190 187 185 185 184 181 178 176 173 170 165 171 168 154 151 158 165 157 133 116 103 99 94 87 88 78 64 57 61 62 48 44 38 29 35 39 4 0 4 1 359 357 359 0 360 359 358 358 358 356 355 356 360 3 5 6 8 12 13 10 7 3 0 358 357 358 359 359 357 351 341 328 317 308 296 285
220 217 215 213 212 210 204 202 201 199 198 195 193 193 191 188 186 186 186 184 189 193 185 176 173 178 180 173 161 133 112 89 67 66 65 55 47 49 49 34 25 23 15 14 18 16 2 360 359 355 354 358 1 1 1 359 356 352 350 349 348 349 349 348 348 350 352 354 355 355 354 353 353 352 352 353 354 356 356 354 348 338 326 313 300
224 222 220 218 218 217 212 207 205 204 205 203 201 201 200 199 198 197 199 200 201 206 205 201 198 197 202 206 210 205 193 204 34 31 15 27 36 36 39 26 13 12 8 4 7 9 1 356 357 356 358 2 3 1 360 358 356 353 351 352 350 347 346 344 342 341 340 338 337 338 338 339 341 343 344 342 342 344 347 351 352 351 346 335 323
228 227 226 225 224 224 221 216 212 211 212 211 209 208 207 209 209 206 208 209 212 217 217 215 215 220 227 228 229 235 233 237 257 282 289 291 310 9 28 15 7 6 4 2 2 0 355 352 356 0 2 4 6 3 357 354 354 354 354 353 350 348 347 347 346 345 341 336 333 332 331 331 332 332 333 333 333 333 334 337 341 345 348 346 339
228 229 232 236 239 237 233 228 222 218 219 219 218 219 219 220 222 223 224 223 224 226 226 226 225 229 236 239 242 247 245 245 251 257 261 262 268 280 323 355 1 1 359 358 358 357 355 353 354 358 2 4 5 5 3 359 354 353 353 352 351 350 347 346 347 348 346 342 339 337 335 334 333 331 330 329 328 327 325 324 326 330 333 337 338
227 228 233 244 256 254 248 245 239 232 227 225 226 228 231 233 233 235 237 239 240 239 236 235 233 235 240 242 243 246 249 251 249 249 256 259 264 275 289 315 332 340 348 355 356 356 357 358 357 356 360 2 2 3 5 3 359 357 353 349 349 351 349 346 346 347 347 346 344 343 342 339 338 336 333 330 328 326 323 320 318 318 320 321 324
236 232 233 238 242 242 244 248 251 251 243 234 233 235 237 242 243 242 244 246 247 248 247 245 242 242 245 245 246 246 249 252 248 245 249 253 260 270 279 297 308 317 332 344 348 350 355 1 0 357 358 359 359 358 358 359 0 1 358 351 346 346 348 346 343 344 345 345 343 341 339 337 336 337 336 335 333 331 328 324 319 316 315 313 313
252 247 242 238 235 236 241 247 256 263 259 248 245 247 249 251 251 251 253 253 253 253 254 253 250 247 247 247 249 249 250 252 250 246 247 251 258 262 272 288 296 306 323 334 338 340 347 356 357 354 351 351 354 354 353 356 357 355 355 350 341 340 341 339 339 341 342 341 339 337 335 335 334 335 336 335 336 336 333 330 326 321 317 313 309
246 245 243 240 235 236 242 248 255 265 267 259 252 253 255 257 259 259 260 260 259 260 260 258 255 253 251 249 249 249 248 249 249 246 245 249 255 258 267 279 287 302 320 327 327 328 334 341 344 344 342 343 349 350 348 353 353 345 342 340 336 335 334 332 334 340 339 337 336 333 332 334 334 333 334 335 335 336 335 334 332 327 322 318 311
236 237 238 238 237 237 242 247 251 259 264 260 255 255 258 263 266 266 265 263 263 264 263 260 256 256 255 252 250 248 246 244 243 239 238 241 247 254 266 274 284 304 319 321 317 313 318 325 329 333 335 335 340 344 342 341 340 334 334 336 333 333 334 333 332 334 334 334 333 329 326 330 332 330 330 332 333 334 336 336 335 330 323 320 316
229 229 229 231 233 235 238 245 254 257 257 257 259 263 266 268 269 268 266 266 266 266 265 261 258 258 257 253 250 247 243 239 233 230 231 236 242 252 263 272 284 302 316 316 306 296 299 305 310 317 318 319 328 335 332 328 328 327 330 332 330 331 334 333 325 322 325 329 329 323 320 324 329 325 325 328 329 331 334 335 335 330 323 321 320
224 224 229 233 236 239 242 249 256 256 254 258 266 272 276 276 274 272 271 272 272 272 271 268 264 260 257 253 250 244 238 232 226 224 226 231 240 250 258 269 285 301 311 307 294 288 292 295 298 302 303 307 316 321 319 319 321 321 323 324 325 325 324 319 310 308 315 323 325 319 315 319 325 323 321 323 323 326 333 337 336 332 328 329 328
227 228 234 241 245 245 242 242 246 249 253 264 278 287 290 290 287 284 282 280 278 277 277 275 271 265 258 253 247 236 226 222 220 222 226 232 241 248 258 272 284 290 291 285 280 282 286 287 290 294 298 301 306 309 312 317 317 318 319 318 319 318 313 309 305 305 312 320 324 317 311 314 324 323 318 319 323 327 334 339 339 339 339 339 334
225 227 231 236 237 235 233 233 238 242 244 257 288 304 300 296 293 289 286 282 277 274 274 275 273 268 261 254 241 224 213 211 215 221 227 236 246 255 267 272 271 274 278 278 279 278 279 282 286 292 299 304 308 310 312 315 316 316 316 315 315 313 309 307 305 307 313 321 326 316 305 311 323 320 314 321 327 331 334 334 336 341 340 341 340
208 212 217 221 223 227 233 239 243 245 247 271 307 318 320 319 307 293 285 282 276 270 270 272 271 267 260 249 231 215 207 206 212 219 227 238 249 256 259 260 264 271 275 276 279 281 285 290 295 300 305 307 310 311 312 314 316 316 314 312 311 310 310 309 309 311 316 322 328 318 298 307 321 318 314 325 331 327 326 323 323 327 328 336 346
183 183 178 187 207 223 235 244 249 255 267 284 298 307 319 333 332 313 291 284 280 272 268 269 263 252 240 222 207 200 200 205 211 220 231 236 240 245 249 257 265 269 271 280 290 295 300 302 302 303 304 305 308 310 313 316 318 320 318 314 316 318 316 313 312 314 319 323 327 318 295 303 323 321 315 325 326 318 320 320 313 311 315 326 341
155 164 169 175 221 249 256 264 270 272 274 279 287 295 305 323 336 334 304 269 251 221 201 189 187 184 180 186 193 193 196 205 213 221 229 233 235 241 249 253 255 258 273 294 301 303 305 305 304 305 305 307 308 310 315 318 319 322 318 314 321 323 316 311 309 310 315 320 329 330 304 304 323 323 316 321 322 316 318 318 305 298 310 324 331
145 130 279 287 295 290 282 275 276 279 277 277 281 289 299 316 330 334 303 195 175 171 169 166 168 172 171 176 189 197 201 204 211 219 228 238 242 245 251 256 262 277 290 299 302 303 304 304 306 308 309 311 312 311 313 314 313 313 307 306 314 314 306 302 299 303 310 315 330 340 316 308 319 322 317 320 319 315 316 311 298 304 315 323 326
242 264 284 294 303 300 288 274 267 264 264 265 266 269 276 292 305 310 238 192 177 174 177 175 173 175 178 181 188 198 202 203 211 226 240 257 262 261 265 274 284 294 299 304 306 306 308 310 312 314 315 316 315 313 312 309 306 302 298 301 307 307 301 297 295 301 307 303 316 324 313 306 312 316 317 321 316 312 315 304 300 311 314 316 320
Height
819 819 820 821 821 821 822 822 823 823 823 823 823 823 824 824 825 825 826 827 828 829 829 829 829 830 830 831 831 831 832 832 833 834 834 835 835 835 835 835 835 835 835 836 836 836 836 837 838 838 838 839 840 841 842 842 841 841 841 841 841 840 840 840 840 840 840 840 841 841 841 841 841 842 842 842 843 843 843 843 843 843 843 843 843
820 821 821 821 821 822 822 823 823 823 823 823 823 823 824 824 825 826 827 828 829 829 829 830 830 830 830 830 831 831 832 833 833 834 835 835 835 836 836 836 836 836 836 836 837 837 837 837 837 838 838 839 840 841 842 843 843 842 842 842 842 841 841 841 841 841 841 841 841 841 841 841 842 842 842 842 843 843 843 844 844 843 843 843 844
820 821 821 821 821 822 823 823 823 823 823 824 824 824 824 824 825 826 827 828 829 829 830 830 830 831 831 831 831 832 833 833 834 835 835 836 836 836 837 837 837 837 837 837 837 838 837 837 837 838 838 839 840 841 842 843 844 843 843 843 843 843 842 842 842 842 842 841 841 841 841 841 842 842 842 843 843 843 844 844 844 844 844 844 844
818 820 820 821 821 822 823 823 823 823 823 824 824 825 825 825 826 826 827 828 829 829 830 830 831 831 831 831 832 832 833 833 834 835 835 836 836 837 837 838 838 838 838 838 838 838 838 838 838 838 838 839 839 840 842 843 844 844 844 844 844 844 844 844 843 843 843 842 842 842 842 842 842 842 843 843 843 844 844 844 844 844 844 844 844
817 819 819 820 821 822 822 822 823 823 823 824 825 825 826 826 826 826 827 828 829 829 830 830 831 831 831 832 832 832 832 833 834 835 836 836 837 837 838 838 839 839 839 839 839 839 839 838 838 838 838 839 839 840 841 842 843 844 845 844 844 845 845 845 845 844 844 844 843 843 843 842 842 843 843 843 844 844 844 845 845 845 845 845 845
816 817 818 819 820 821 821 822 822 823 823 824 825 826 826 826 826 826 827 828 828 829 829 830 831 831 832 832 832 832 833 833 834 835 836 836 836 837 838 838 839 839 839 839 839 839 839 839 839 839 839 839 839 840 841 841 842 843 844 844 844 845 845 846 845 845 845 845 844 844 843 843 843 843 843 843 844 844 845 845 845 845 845 845 845
815 816 817 818 819 820 820 821 822 823 823 824 825 826 826 826 827 827 827 828 828 829 829 830 830 831 832 832 832 832 833 833 834 835 835 835 836 837 837 838 839 839 839 839 839 840 840 840 840 839 839 839 839 840 840 841 842 842 843 844 844 845 845 846 846 846 846 846 845 845 844 844 844 843 843 843 844 844 844 845 845 845 846 846 846
814 816 817 818 818 819 820 821 822 823 824 825 825 826 826 826 826 827 827 827 828 828 829 830 830 831 831 832 832 833 833 833 834 834 834 834 835 836 837 837 838 838 839 839 839 840 840 840 840 840 840 839 840 840 840 841 842 842 843 843 844 844 844 845 846 846 846 846 846 845 845 845 844 844 844 843 843 844 844 845 845 846 846 846 846
813 814 816 817 818 818 820 821 822 823 824 825 826 826 826 826 826 826 827 827 828 828 829 830 830 830 831 831 832 833 834 834 834 834 835 835 835 836 836 837 837 838 838 838 839 839 839 839 840 840 840 840 840 841 841 842 842 842 843 843 843 843 844 844 845 845 846 846 846 846 846 845 845 844 844 844 843 844 844 844 845 845 846 846 846
812 813 814 815 816 818 819 820 822 823 825 826 827 826 826 826 826 826 826 827 827 828 829 829 830 830 831 831 831 833 835 835 834 834 836 835 835 837 837 837 836 837 837 837 838 838 839 839 839 839 840 840 840 841 842 842 842 842 842 843 843 843 843 843 844 844 845 845 845 845 845 845 845 844 844 844 844 844 844 844 844 845 845 846 846
811 812 813 814 815 817 819 820 821 823 825 827 827 827 826 825 825 826 826 826 827 828 828 829 829 830 831 831 832 834 835 835 834 834 836 836 836 837 838 837 836 836 836 836 836 837 837 838 838 839 839 840 840 840 841 841 842 842 842 842 843 843 843 843 843 843 843 844 845 845 845 845 845 844 844 844 844 844 844 844 844 844 845 846 846
811 812 812 813 815 817 818 819 820 821 823 825 825 825 825 825 824 825 825 825 826 827 828 828 829 830 831 831 832 834 834 834 834 834 835 835 835 836 837 837 837 836 836 836 836 836 836 837 837 838 839 839 840 840 840 840 841 841 841 842 842 842 842 843 843 842 842 843 843 844 844 844 844 844 844 844 844 844 844 844 844 844 845 845 846
811 811 812 813 815 816 817 818 819 820 822 822 822 823 824 824 824 824 824 825 825 826 827 828 829 830 831 831 832 833 834 834 834 834 834 835 835 835 836 836 836 836 836 836 835 835 835 836 837 837 838 839 839 839 839 840 840 840 840 841 841 841 841 842 842 842 842 842 842 843 843 843 844 844 844 844 844 844 844 844 844 844 844 845 845
811 811 812 813 814 815 816 817 817 818 820 820 821 822 824 825 825 824 824 824 825 826 828 829 830 830 831 831 832 833 833 834 834 834 834 835 835 835 836 836 836 836 836 836 835 835 835 836 836 837 837 838 838 839 839 839 839 839 840 840 840 840 840 841 841 841 841 841 841 841 841 842 842 843 844 844 844 844 844 844 844 844 844 844 845
812 812 813 813 814 815 815 816 816 817 819 820 821 823 824 824 825 823 823 824 826 827 828 828 830 830 831 832 833 834 834 835 835 835 835 834 835 835 835 836 836 836 836 836 836 835 835 835 836 836 836 836 837 837 838 838 838 838 839 839 839 839 839 840 840 840 840 840 840 840 841 841 841 842 843 844 844 844 844 844 844 844 844 844 845
812 813 814 814 815 816 816 817 817 818 820 820 822 823 823 824 823 823 823 824 825 827 828 828 829 830 831 833 835 836 836 836 835 835 835 834 835 835 835 835 836 836 836 836 836 836 836 836 837 837 836 835 835 836 836 837 837 837 837 838 838 838 838 838 839 839 839 839 839 839 840 840 840 841 842 842 843 843 843 843 844 844 844 844 844
813 814 815 815 816 817 817 818 819 819 820 821 822 822 822 823 823 823 823 824 825 827 827 828 829 830 831 832 834 835 837 837 836 835 835 835 835 835 835 835 836 836 836 836 836 836 836 836 836 836 836 835 835 836 836 836 835 836 836 836 836 836 836 837 837 838 838 838 838 838 839 839 839 839 840 841 842 842 842 843 843 843 843 843 843
813 814 815 815 816 816 817 818 818 819 819 819 820 821 821 822 822 823 823 824 826 827 827 828 830 830 830 830 831 833 834 836 836 836 835 835 835 835 836 836 836 836 836 836 836 836 836 836 835 835 835 836 836 836 836 835 834 834 834 834 834 834 835 835 835 835 836 836 836 836 837 837 837 838 839 840 840 841 841 841 842 842 842 842 842
814 814 815 815 815 816 816 817 817 817 817 818 818 819 820 821 822 823 823 824 826 827 828 829 831 830 829 830 830 831 832 834 835 836 836 836 835 835 836 836 836 836 836 836 836 836 836 836 836 836 836 836 836 835 835 834 834 833 833 833 833 833 833 833 833 833 834 835 835 835 835 835 836 836 837 838 839 839 840 840 841 841 841 841 841
814 814 815 815 815 816 816 816 816 817 817 817 818 819 820 821 822 823 823 824 825 827 828 829 830 829 829 830 831 832 832 833 834 835 836 837 837 836 836 836 836 836 836 836 836 836 835 835 835 835 835 835 835 835 835 834 833 833 833 834 833 831 830 831 831 831 832 833 833 834 834 833 834 835 836 836 837 838 838 839 840 840 841 840 840
815 815 815 815 815 816 816 816 816 817 817 818 818 819 820 821 822 823 823 824 825 826 827 828 828 828 829 830 831 832 833 833 834 835 836 837 838 838 837 837 837 837 837 837 837 836 835 835 835 835 834 834 834 834 834 833 832 832 833 834 833 831 829 829 830 830 830 831 831 831 831 832 833 833 833 834 835 836 837 838 839 840 840 840 839
816 816 816 816 816 816 817 817 818 818 818 819 819 820 821 822 823 823 824 824 825 825 826 827 827 828 829 830 831 832 833 834 835 835 836 836 838 838 838 838 838 838 838 838 838 837 836 836 835 835 834 834 833 833 833 832 831 831 832 832 831 829 828 828 829 829 828 829 829 829 829 830 831 831 832 833 833 833 834 835 836 836 837 837 837
817 818 818 817 817 817 818 818 819 819 820 820 820 821 822 823 824 824 825 825 825 826 826 827 828 828 829 830 831 833 833 834 835 835 836 836 837 838 838 838 838 838 839 839 839 838 837 837 836 836 835 834 834 833 832 832 831 830 830 830 829 828 828 828 828 828 828 828 828 827 828 829 829 830 831 832 831 831 832 832 832 832 834 835 836
819 819 819 819 819 819 819 819 820 820 821 821 822 822 823 824 825 825 826 827 827 828 828 828 829 830 831 832 833 833 834 835 835 836 836 836 837 838 839 838 838 838 839 839 839 838 838 837 837 837 836 835 835 834 833 833 832 831 830 829 828 828 828 828 829 828 828 828 828 827 827 828 829 829 830 831 831 831 831 831 830 830 831 832 833
819 820 820 820 820 820 820 821 821 822 822 823 823 824 824 825 826 827 827 828 829 829 830 830 831 832 832 833 834 835 835 835 836 836 836 837 837 838 839 839 838 838 839 839 839 839 838 838 838 838 837 837 836 836 835 834 833 832 831 830 829 828 828 828 829 829 828 828 828 827 827 828 829 829 829 830 831 830 830 829 827 828 829 829 830
820 821 821 821 821 821 821 822 822 822 823 824 825 825 826 826 827 828 828 829 830 830 831 832 832 833 834 835 835 836 836 836 837 837 837 837 837 838 839 839 839 839 839 839 839 839 839 839 839 838 837 837 837 836 836 835 834 833 832 831 829 829 829 829 829 829 829 828 828 828 828 828 829 829 830 830 830 830 830 828 826 826 827 827 828
821 821 822 822 822 823 823 823 823 823 823 824 825 826 827 827 828 828 829 830 831 832 833 833 834 834 835 835 836 836 837 837 837 838 838 838 838 839 839 839 839 839 840 840 840 840 840 839 839 838 838 838 837 837 836 835 835 834 833 832 831 830 830 829 830 829 829 828 828 829 829 829 829 829 828 828 828 828 828 827 826 826 826 826 826
821 822 822 823 823 824 824 824 824 824 824 825 826 827 827 828 828 829 830 831 832 833 833 834 835 836 836 837 837 837 838 838 838 839 839 839 840 840 840 839 839 840 841 841 841 841 841 840 839 839 839 838 838 837 836 835 834 834 833 832 831 831 830 830 830 829 829 828 828 829 829 828 828 827 827 826 826 826 826 825 825 825 825 825 825
822 823 823 823 823 824 824 825 825 825 825 825 826 827 828 829 829 830 831 832 833 833 834 835 836 837 837 838 838 839 839 840 840 840 840 841 841 841 841 841 840 841 842 843 842 842 842 841 841 840 840 839 838 838 837 836 835 834 833 833 832 831 831 830 830 829 828 828 828 828 828 827 827 826 826 825 825 825 824 823 823 822 822 822 822
823 823 824 823 823 824 824 825 825 825 825 826 827 828 829 830 830 831 832 833 834 835 836 837 837 838 838 839 840 840 840 841 841 841 841 841 842 842 842 842 842 842 843 843 844 843 843 843 842 842 841 840 839 838 837 837 836 835 834 833 832 832 831 830 830 829 828 827 827 827 826 826 826 825 825 825 824 823 822 822 821 820 819 819 819
823 824 824 824 824 824 824 825 825 826 826 826 827 828 829 830 831 832 833 834 835 836 837 838 838 839 839 840 840 841 841 842 842 842 842 842 842 842 842 842 842 842 843 844 844 844 844 844 844 843 842 841 840 839 838 837 836 835 834 833 833 832 832 831 829 829 828 828 827 827 826 826 825 825 824 823 823 822 821 820 819 818 817 817 817
823 823 824 825 824 824 824 825 825 826 826 827 828 829 830 831 832 832 834 834 835 836 837 838 839 840 840 840 841 841 841 842 842 842 842 842 842 842 842 842 842 843 843 844 844 845 844 844 844 843 842 842 840 839 838 837 836 836 834 833 833 832 831 831 830 829 828 828 827 827 827 826 825 824 823 822 822 820 819 818 817 816 816 815 815
822 823 823 824 824 825 825 825 825 825 826 827 828 829 830 831 832 833 834 834 835 837 837 838 839 840 841 841 842 842 842 842 842 842 842 842 842 842 842 842 842 843 843 843 844 845 845 844 844 843 842 841 840 839 837 836 835 835 834 833 832 831 831 830 830 829 829 828 827 827 826 825 824 824 823 822 821 820 819 817 816 815 814 813 813
822 822 823 824 824 825 826 826 826 826 826 827 828 828 829 830 831 832 833 834 835 836 837 838 839 840 841 841 842 842 843 843 842 842 842 842 842 843 843 843 843 843 843 843 843 844 844 844 843 843 842 840 839 838 837 836 835 834 833 832 832 831 830 830 829 829 828 827 827 826 825 825 824 823 822 821 820 819 818 816 815 813 812 811 811
822 822 823 824 825 826 826 826 827 827 827 827 827 828 828 829 830 831 832 833 834 835 836 837 838 839 840 841 841 842 842 842 842 842 842 842 842 843 843 843 843 843 843 843 843 843 843 843 843 842 841 840 839 838 837 836 835 833 832 832 831 830 830 829 828 828 827 826 826 825 824 823 823 822 821 820 819 818 816 815 814 812 811 810 810
822 823 824 825 826 826 827 827 827 827 827 827 827 828 828 829 830 830 831 832 833 833 834 836 837 838 839 839 840 841 841 842 842 842 842 842 842 842 842 843 843 843 843 843 842 842 842 842 842 841 841 840 840 838 837 835 834 833 832 831 830 829 829 828 827 826 826 825 824 823 823 822 821 820 819 818 817 816 815 814 813 812 811 810 808
821 823 825 827 828 829 829 828 828 828 828 828 829 829 830 830 830 831 832 832 832 833 833 834 835 836 837 838 839 840 840 841 841 841 841 841 842 842 842 842 842 842 842 842 842 842 841 841 841 841 840 840 839 838 837 835 833 832 831 830 829 828 827 826 826 825 824 823 822 822 821 820 820 819 818 817 816 815 813 812 811 810 809 808 807
819 821 824 827 830 832 831 830 829 829 829 829 829 830 831 831 831 832 832 832 832 833 833 834 834 835 836 837 838 838 839 839 840 840 841 841 841 841 841 841 841 841 841 841 840 840 841 841 840 840 839 839 838 837 836 835 833 831 829 828 827 827 826 824 823 823 822 821 820 820 819 818 818 817 816 815 814 812 811 810 809 808 807 806 805
820 821 823 825 828 830 829 828 829 830 830 828 828 829 830 830 831 831 831 832 832 832 832 833 834 834 835 836 836 837 837 838 838 839 840 840 840 841 841 841 841 840 840 840 839 839 840 840 840 839 839 838 837 836 836 835 833 832 830 827 825 824 824 823 822 821 820 820 819 818 817 816 816 815 814 813 812 810 809 808 807 805 805 804 803
822 823 823 824 825 826 826 826 829 831 831 828 828 828 829 829 830 830 830 830 831 831 832 832 833 833 834 835 835 835 836 836 837 838 838 839 840 840 840 840 840 840 840 840 839 839 839 839 839 839 838 838 837 836 835 833 832 831 831 830 827 825 824 823 822 821 819 818 816 815 815 813 812 811 811 810 809 808 807 806 805 803 803 802 801
820 821 821 822 822 823 824 825 827 830 831 829 827 827 828 828 828 829 829 829 829 830 830 831 832 832 833 833 834 834 834 835 836 836 837 838 839 839 839 839 840 839 839 839 839 839 839 839 838 838 837 836 836 835 834 833 832 832 831 831 829 827 824 822 821 821 819 817 815 813 812 812 810 808 808 807 806 805 804 803 802 801 800 800 799
816 817 818 820 820 821 823 823 824 826 828 828 826 826 826 826 826 826 827 827 827 828 829 829 830 830 831 831 832 832 833 834 834 835 836 836 837 837 838 838 839 839 839 839 839 839 839 838 838 837 836 836 835 835 834 833 833 832 831 829 827 826 824 821 819 819 819 817 815 811 810 810 809 806 805 805 804 803 802 801 800 799 798 797 796
813 816 818 818 819 820 822 823 823 824 826 826 825 825 825 824 824 824 824 825 825 826 826 826 827 827 828 828 829 831 832 832 833 834 834 835 836 836 837 837 837 837 837 837 838 838 838 837 837 837 836 836 835 835 834 833 832 831 830 829 827 825 824 822 819 817 817 817 815 811 808 809 809 806 804 804 803 802 801 799 798 797 796 795 794
814 817 818 817 818 820 820 821 823 824 824 824 823 823 823 822 822 822 822 822 823 823 824 824 824 825 825 826 827 828 830 831 831 833 834 834 835 835 835 836 836 836 836 836 836 836 837 836 836 836 836 835 835 834 834 832 831 830 829 828 827 826 824 824 821 818 816 816 815 810 806 806 808 805 802 802 802 800 800 799 797 796 794 793 793
814 816 817 817 818 818 818 819 821 822 822 821 821 821 821 821 821 821 821 821 821 821 822 822 822 822 823 824 825 826 828 829 831 832 833 833 834 834 834 835 835 835 835 835 835 835 835 835 835 835 835 834 834 833 833 832 830 829 828 826 826 825 823 822 820 817 816 816 815 810 805 804 806 805 802 800 800 799 798 797 796 795 793 792 791
812 814 815 816 816 816 817 818 819 819 819 820 820 820 820 819 819 819 819 819 819 820 820 820 820 821 821 822 823 825 827 828 830 831 832 832 833 833 833 833 833 833 833 833 833 833 833 834 834 834 834 833 832 832 831 830 829 828 827 825 824 823 821 820 818 816 815 815 814 811 805 802 804 803 801 799 798 798 797 797 795 794 793 792 790
811 812 813 814 814 815 815 816 816 817 817 818 818 818 819 819 819 818 818 818 818 818 819 819 819 820 820 821 823 824 826 827 829 830 830 831 831 832 832 832 832 832 832 832 832 832 832 832 833 833 833 832 831 830 829 829 828 827 826 824 823 821 819 817 816 815 814 813 813 811 806 802 803 802 800 799 798 796 796 796 794 794 792 791 790
809 810 811 812 812 813 813 814 814 815 816 816 817 817 818 818 818 818 817 817 817 818 818 819 819 819 820 821 822 824 825 826 827 828 829 829 830 830 831 831 831 832 831 831 831 831 831 831 831 832 831 830 829 828 827 827 826 824 823 822 821 820 817 815 814 813 812 811 811 810 805 802 802 801 798 798 797 795 795 794 793 792 791 790 789
807 808 809 810 811 812 812 813 813 814 815 815 816 816 817 817 817 817 817 817 817 818 818 819 819 820 821 822 822 823 824 825 826 827 827 828 829 829 830 830 831 831 831 830 830 830 830 830 830 830 829 829 828 827 826 825 824 823 822 820 819 818 816 814 812 810 810 809 808 807 805 802 802 800 797 796 795 794 793 792 791 791 790 789 788
807 808 808 809 810 811 812 813 813 814 814 814 815 815 816 816 816 816 817 817 817 818 818 819 820 820 821 822 823 823 824 824 825 826 827 827 828 828 829 830 830 830 830 829 829 829 829 829 829 828 828 827 826 825 824 824 823 822 821 818 817 816 814 813 811 808 807 807 806 806 804 801 801 800 797 794 793 792 791 790 789 790 789 788 787
807 808 809 810 810 811 812 812 813 813 813 814 814 815 816 816 816 816 817 817 818 818 819 819 820 820 821 822 822 823 823 824 825 825 826 827 827 828 828 828 829 828 828 828 828 827 827 827 827 826 826 825 824 823 822 822 821 820 819 817 816 815 812 811 810 808 806 804 805 805 803 800 800 799 798 795 791 789 789 789 789 788 788 787 786